When you browse on this site, cookies collect data to enhance your experience and personalize the content and advertising you see.
Visit our Privacy Policy to learn more. By continuing to use the site, you agree to this use of cookies and data.
  • In United Kingdom
  • List of Countries
  • For 7 days
  • Water Temperature
  • Weather Map
  • Weather Widgets
  • user-avatar
    Login

    Hourly Weather Chester

    Today, 22 November, Friday

    Time Temperature Precipitation Wind Pressure Humidity
    00:00 +4°C° 0 mm 4 mps 747 mmHg 89%
    01:00 +4°C° 0.4 mm 4 mps 746 mmHg 91%
    02:00 +4°C° 0.4 mm 4 mps 745 mmHg 92%
    03:00 +4°C° 0.4 mm 4 mps 745 mmHg 93%
    04:00 +5°C° 0.3 mm 4 mps 745 mmHg 94%
    05:00 +5°C° 0.3 mm 3 mps 744 mmHg 94%
    06:00 +5°C° 0 mm 3 mps 745 mmHg 93%
    07:00 +5°C° 0.1 mm 3 mps 744 mmHg 93%
    08:00 +5°C° 0.1 mm 4 mps 744 mmHg 93%
    09:00 +6°C° 0.1 mm 4 mps 744 mmHg 94%
    10:00 +6°C° 0 mm 4 mps 744 mmHg 91%
    11:00 +6°C° 0 mm 4 mps 744 mmHg 89%
    12:00 +7°C° 0 mm 5 mps 744 mmHg 87%
    13:00 +7°C° 0.1 mm 5 mps 744 mmHg 87%
    14:00 +7°C° 0.1 mm 5 mps 744 mmHg 87%
    15:00 +7°C° 0.1 mm 5 mps 744 mmHg 87%
    16:00 +7°C° 0.6 mm 5 mps 744 mmHg 88%
    17:00 +7°C° 0.6 mm 5 mps 744 mmHg 90%
    18:00 +6°C° 0.6 mm 5 mps 745 mmHg 92%
    19:00 +6°C° 0.4 mm 5 mps 745 mmHg 91%
    20:00 +7°C° 0.4 mm 5 mps 745 mmHg 90%
    21:00 +7°C° 0.4 mm 5 mps 745 mmHg 90%
    22:00 +6°C° 0 mm 5 mps 745 mmHg 89%
    23:00 +6°C° 0 mm 5 mps 745 mmHg 89%

    Tomorrow, 23 November, Saturday

    Time Temperature Precipitation Wind Pressure Humidity
    00:00 +6°C° 0 mm 4 mps 745 mmHg 89%
    01:00 +6°C° 0.1 mm 4 mps 745 mmHg 90%
    02:00 +6°C° 0.1 mm 5 mps 745 mmHg 90%
    03:00 +7°C° 0.1 mm 5 mps 745 mmHg 90%
    04:00 +7°C° 1.1 mm 5 mps 745 mmHg 91%
    05:00 +7°C° 1.1 mm 5 mps 745 mmHg 92%
    06:00 +7°C° 1.1 mm 5 mps 745 mmHg 92%
    07:00 +7°C° 0.5 mm 5 mps 745 mmHg 92%
    08:00 +7°C° 0.5 mm 5 mps 745 mmHg 92%
    09:00 +8°C° 0.5 mm 6 mps 745 mmHg 91%
    10:00 +8°C° 0.2 mm 5 mps 745 mmHg 91%
    11:00 +8°C° 0.2 mm 5 mps 746 mmHg 91%
    12:00 +8°C° 0.2 mm 4 mps 746 mmHg 91%
    13:00 +8°C° 0.5 mm 4 mps 746 mmHg 92%
    14:00 +7°C° 0.5 mm 4 mps 746 mmHg 92%
    15:00 +8°C° 0.5 mm 3 mps 746 mmHg 93%
    16:00 +8°C° 0.3 mm 3 mps 747 mmHg 94%
    17:00 +8°C° 0.3 mm 4 mps 747 mmHg 94%
    18:00 +8°C° 0.3 mm 4 mps 748 mmHg 94%
    19:00 +9°C° 0.5 mm 3 mps 748 mmHg 94%
    20:00 +9°C° 0.5 mm 3 mps 748 mmHg 94%
    21:00 +9°C° 0.5 mm 2 mps 749 mmHg 94%
    22:00 +9°C° 0.1 mm 2 mps 749 mmHg 94%
    23:00 +8°C° 0.1 mm 2 mps 749 mmHg 94%

    Day after tomorrow, 24 November, Sunday

    Time Temperature Precipitation Wind Pressure Humidity
    00:00 +8°C° 0.1 mm 2 mps 749 mmHg 93%
    01:00 +8°C° 0 mm 2 mps 749 mmHg 93%
    02:00 +8°C° 0 mm 2 mps 749 mmHg 94%
    03:00 +8°C° 0 mm 2 mps 749 mmHg 94%
    04:00 +7°C° 0 mm 2 mps 749 mmHg 94%
    05:00 +7°C° 0 mm 2 mps 750 mmHg 94%
    06:00 +7°C° 0 mm 2 mps 750 mmHg 94%
    07:00 +7°C° 0 mm 2 mps 750 mmHg 94%
    08:00 +8°C° 0 mm 3 mps 750 mmHg 94%
    09:00 +8°C° 0 mm 3 mps 750 mmHg 94%
    10:00 +8°C° 0 mm 3 mps 750 mmHg 93%
    11:00 +9°C° 0 mm 3 mps 750 mmHg 93%
    12:00 +9°C° 0 mm 3 mps 750 mmHg 92%
    13:00 +9°C° 0 mm 3 mps 750 mmHg 92%
    14:00 +10°C° 0 mm 3 mps 750 mmHg 91%
    15:00 +10°C° 0 mm 4 mps 749 mmHg 90%
    16:00 +8°C° 0 mm 4 mps 749 mmHg 90%
    17:00 +8°C° 0 mm 4 mps 749 mmHg 90%
    18:00 +7°C° 0 mm 4 mps 749 mmHg 90%
    19:00 +7°C° 0 mm 4 mps 749 mmHg 90%
    20:00 +7°C° 0 mm 5 mps 749 mmHg 89%
    21:00 +8°C° 0 mm 5 mps 749 mmHg 89%
    22:00 +8°C° 0 mm 5 mps 748 mmHg 89%
    23:00 +7°C° 0 mm 6 mps 748 mmHg 89%

    25 November, Monday

    Time Temperature Precipitation Wind Pressure Humidity
    00:00 +7°C° 0 mm 6 mps 747 mmHg 89%
    01:00 +6°C° 0.3 mm 7 mps 747 mmHg 89%
    02:00 +8°C° 0.3 mm 7 mps 746 mmHg 90%
    03:00 +8°C° 0.3 mm 7 mps 745 mmHg 90%
    04:00 +8°C° 0.4 mm 7 mps 744 mmHg 91%
    05:00 +8°C° 0.4 mm 7 mps 744 mmHg 92%
    06:00 +9°C° 0.4 mm 7 mps 743 mmHg 93%
    07:00 +9°C° 0.3 mm 6 mps 743 mmHg 93%
    08:00 +9°C° 0.3 mm 5 mps 743 mmHg 92%
    09:00 +10°C° 0.3 mm 5 mps 742 mmHg 92%
    10:00 +10°C° 0.2 mm 5 mps 742 mmHg 88%
    11:00 +10°C° 0.2 mm 5 mps 742 mmHg 84%
    12:00 +12°C° 0.2 mm 5 mps 741 mmHg 80%
    13:00 +11°C° 0.6 mm 4 mps 741 mmHg 84%
    14:00 +11°C° 0.6 mm 3 mps 741 mmHg 88%
    15:00 +10°C° 0.6 mm 3 mps 740 mmHg 91%
    16:00 +10°C° 0.5 mm 3 mps 740 mmHg 92%
    17:00 +9°C° 0.5 mm 2 mps 741 mmHg 93%
    18:00 +9°C° 0.5 mm 2 mps 741 mmHg 94%
    19:00 +9°C° 0 mm 2 mps 741 mmHg 93%
    20:00 +9°C° 0 mm 3 mps 741 mmHg 92%
    21:00 +9°C° 0 mm 3 mps 742 mmHg 91%
    22:00 +9°C° 0 mm 3 mps 742 mmHg 92%
    23:00 +9°C° 0 mm 3 mps 743 mmHg 93%

    26 November, Tuesday

    Time Temperature Precipitation Wind Pressure Humidity
    00:00 +8°C° 0 mm 3 mps 743 mmHg 94%
    01:00 +8°C° 0.5 mm 4 mps 743 mmHg 92%
    02:00 +8°C° 0.5 mm 4 mps 744 mmHg 91%
    03:00 +9°C° 0.5 mm 5 mps 744 mmHg 89%
    04:00 +8°C° 0 mm 5 mps 744 mmHg 89%
    05:00 +8°C° 0 mm 4 mps 744 mmHg 88%
    06:00 +7°C° 0 mm 4 mps 744 mmHg 88%
    07:00 +8°C° 0.2 mm 4 mps 744 mmHg 89%
    08:00 +8°C° 0.2 mm 5 mps 743 mmHg 90%
    09:00 +9°C° 0.2 mm 5 mps 743 mmHg 92%
    10:00 +9°C° 0.2 mm 5 mps 742 mmHg 91%
    11:00 +9°C° 0.2 mm 5 mps 741 mmHg 90%
    12:00 +10°C° 0.2 mm 6 mps 740 mmHg 90%
    13:00 +10°C° 0.4 mm 6 mps 739 mmHg 91%
    14:00 +10°C° 0.4 mm 6 mps 738 mmHg 91%
    15:00 +10°C° 0.4 mm 6 mps 737 mmHg 92%
    16:00 +10°C° 1.3 mm 6 mps 736 mmHg 90%
    17:00 +10°C° 1.3 mm 5 mps 735 mmHg 89%
    18:00 +10°C° 1.3 mm 5 mps 735 mmHg 87%
    19:00 +10°C° 0 mm 4 mps 735 mmHg 87%
    20:00 +8°C° 0 mm 4 mps 735 mmHg 86%
    21:00 +7°C° 0 mm 4 mps 735 mmHg 86%
    22:00 +7°C° 0 mm 4 mps 734 mmHg 87%
    23:00 +6°C° 0 mm 4 mps 734 mmHg 89%

    27 November, Wednesday

    Time Temperature Precipitation Wind Pressure Humidity
    00:00 +6°C° 0 mm 4 mps 734 mmHg 90%
    01:00 +6°C° 0.1 mm 4 mps 733 mmHg 91%
    02:00 +7°C° 0.1 mm 3 mps 733 mmHg 92%
    03:00 +7°C° 0.1 mm 2 mps 733 mmHg 93%
    04:00 +7°C° 0.1 mm 2 mps 733 mmHg 94%
    05:00 +6°C° 0.1 mm 2 mps 733 mmHg 94%
    06:00 +7°C° 0.1 mm 1 mps 733 mmHg 94%
    07:00 +7°C° 0 mm 1 mps 733 mmHg 94%
    08:00 +7°C° 0 mm 1 mps 733 mmHg 93%
    09:00 +7°C° 0 mm 1 mps 734 mmHg 93%
    10:00 +7°C° 0 mm 2 mps 734 mmHg 91%
    11:00 +8°C° 0 mm 2 mps 735 mmHg 89%
    12:00 +8°C° 0 mm 3 mps 736 mmHg 87%
    13:00 +8°C° 0.1 mm 3 mps 736 mmHg 87%
    14:00 +9°C° 0.1 mm 3 mps 737 mmHg 87%
    15:00 +8°C° 0.1 mm 4 mps 737 mmHg 87%
    16:00 +8°C° 0.4 mm 3 mps 738 mmHg 89%
    17:00 +8°C° 0.4 mm 3 mps 738 mmHg 90%
    18:00 +8°C° 0.4 mm 3 mps 739 mmHg 92%
    19:00 +8°C° 0.6 mm 3 mps 739 mmHg 92%
    20:00 +9°C° 0.6 mm 3 mps 740 mmHg 93%
    21:00 +9°C° 0.6 mm 3 mps 740 mmHg 94%
    22:00 +9°C° 0.2 mm 3 mps 741 mmHg 94%
    23:00 +9°C° 0.2 mm 3 mps 741 mmHg 94%
    Show more